KenzoPoker : Agen Poker Online Indonesia, Agen Judi Poker, Agen Poker Terpercaya

Jackpot

Texas Poker Multi Jackpot System

Kini Telah hadir Jackpot SUPER ROYAL FLUSH

Kini Telah hadir Jackpot 2000 (khusus table VIP keatas).

Ikutilah global jackpot yang tersedia di system kami, dengan system jackpot terbaru dan pertama di indonesia, anda dapat membeli jackpot dengan harga 100 rupiah saja dan menangkan hadiahnya hingga puluhan juta rupiah.

Jackpot bukanlah suatu keharusan untuk dibeli, namun kami memberikan suatu fitur tambahan untuk member tercinta dari www.kenzopoker.com.

Terdapat tiga pilihan harga jackpot yang bisa anda beli yaitu :100,500,1000 dan 2000(khusus table VIP Keatas) rupiah.

Hadiah dari Multi jackpot system www.kenzopoker.com

  1. full house x 10 harga jackpot yang anda beli.
      (contoh:anda membeli 1000 maka:1000 X10 = 10.000)
  2. four of kind x 250 harga jackpot yang anda beli
      (contoh:anda membeli 1000 maka:1000 X250 = 250.000)
  3. Straight flush x 1200
      (contoh:anda membeli 1000 maka:1000 X1200 = 1.200.000)
  4. Royal flush x 10000 harga jackpot yang anda beli
      (contoh:anda membeli 1000 maka:1000 X10000 = 10.000.000)
  5. SUPER ROYAL FLUSH x 30000 harga jackpot yang anda beli
      (contoh:anda membeli 1000 maka:1000 X30000 = 30.000.000)

Kondisi kartu

  1. full house adalah kondisi kartu dimana kartu anda dan kartu tengah dengan total 7 kartu bisa mendapatkan nilai 5 kartu dengan kombinasi 1 tris(three of kind) dan 1 pair, contoh 3 kartu 10 dan 2 kartu 5
  2. Four of kind adalah kondisi kartu dimana kartu anda dan kartu tengah dengan total 7 kartu bisa mendapatkan nilai 5 kartu dengan kombinasi 4 kartu yang sama jumlah dan 1 kartu apapun juga contoh anda mendapatkan 4 buah kartu angka 3 dan 1 kartu apapun.
  3. Staright flush adalah kondisi kartu dimana kartu anda dan kartu tengah dengan total 7 kartu bisa mendapatkan nilai 5 kartu dengan kombinasi seri / staright dengan kembang yang sama contoh : urutan kartu dari angka 5, 6, 7, 8 , 9 10 dengan kembang yg sama misalnya as hati
  4. Royal flush adalah kondisi kartu dimana kartu anda dan kartu tengah dengan total 7 kartu bisa mendapatkan nilai 5 kartu dengan kombinasi seri / staright dengan kembang yang sama tetapi kartu tersebut haruslah dimulai dari 10. contoh 10, Queen, Jack, King dan aces dengan kembang yang sama
  5. Super Royal flush adalah kondisi kartu dimana Kedua kartu anda digabung dengan 3 kartu pertama meja haruslah royal flush. contoh kartu anda 10,Queen kembang sama dan 3 kartu pertama meja adalah Jack, King dan aces dengan kembang yang sama

Demikian adalah penjelasan dari Multi Jackpot www.kenzopoker.com terima kasih dan selamat bermain salam hoki dari kami

Texas Poker Jackpot Winner

TOP SUPER ROYAL FLUSH
No.TanggalNamaPriceWin
125/01 06:11BRAHMA89Super Royal flush3,000,000
225/01 02:35BERATOSuper Royal flush3,000,000
325/01 01:03MOCAMOCISuper Royal flush3,000,000
424/01 18:50ALAN_TAN88Super Royal flush15,000,000
524/01 18:36BIRIN27Super Royal flush3,000,000
TOP ROYAL FLUSH
No.TanggalNamaPriceWin
125/01 06:07B4YUXXRoyal flush1,000,000
225/01 05:35KALAHTEROSRoyal flush1,000,000
325/01 05:35E0A9FB65Royal flush1,000,000
425/01 05:10POKEL1Royal flush20,000,000
525/01 05:01DONKGORoyal flush20,000,000
TOP STRAIGHT FLUSH
No.TanggalNamaPriceWin
125/01 06:08LOGIKA171Straight Flush2,400,000
225/01 06:01GOO18Straight Flush120,000
325/01 05:56T0L0L377Straight Flush600,000
425/01 05:51MASNOER69Straight Flush600,000
525/01 05:49KIPEK123Straight Flush120,000
LATEST JACKPOT
No.TanggalNamaPriceWin
125/01 06:13LM6B0H16OMFull House1,000
225/01 06:13X_PRESIFull House10,000
325/01 06:13SACKTYFull House10,000
425/01 06:13PLANET00Full House10,000
525/01 06:13YAKUB10Full House1,000
625/01 06:13KDYANTI99Full House10,000
725/01 06:13KEBUN767Four Of A Kind125,000
825/01 06:13KENTO7Four Of A Kind125,000
925/01 06:13ASU2NANFull House1,000
1025/01 06:13ARPAN89Full House1,000
1125/01 06:13JIHO87Full House1,000
1225/01 06:13C249D39DFull House1,000
1325/01 06:13ADLANTFull House20,000
1425/01 06:13PEDOLZZFull House1,000
1525/01 06:13JP100ASFull House1,000
1625/01 06:13DIAN2000Full House1,000
1725/01 06:13A83141CAFull House5,000
1825/01 06:13DRWFull House1,000
1925/01 06:13SAB1ANFull House1,000
2025/01 06:13PENI1908Full House1,000
2125/01 06:12THE_STONESFull House5,000
2225/01 06:12SEU_HAHFull House5,000
2325/01 06:12T3MPOS99Full House5,000
2425/01 06:12MACHO2277Full House10,000
2525/01 06:12ALISAQQFull House5,000
2625/01 06:12C0XDYM80OLFull House5,000
2725/01 06:12THAILOKFull House5,000
2825/01 06:12LION505Full House5,000
2925/01 06:12LAPULG410Full House1,000
3025/01 06:12ARCONINDOFull House1,000
3125/01 06:12FIRJIFull House10,000
3225/01 06:12BAYU182Full House5,000
3325/01 06:12KUTIL666Full House10,000
3425/01 06:12OIINK88Full House5,000
3525/01 06:12F4NIE19Full House1,000
3625/01 06:12IYOS8888Four Of A Kind25,000
3725/01 06:12ELTON88Full House5,000
3825/01 06:12POKERA77Full House1,000
3925/01 06:12IDAMS288Full House5,000
4025/01 06:12GOJ3ZFull House5,000
4125/01 06:12K300477Full House20,000
4225/01 06:12THONKZ28Full House10,000
4325/01 06:12ARCONINDOFull House1,000
4425/01 06:12XXLAY99Full House1,000
4525/01 06:12UBAKULAFull House1,000
4625/01 06:12SRTM69Full House10,000
4725/01 06:12C8ZSHDPL5TFull House5,000
4825/01 06:12OKTA1972Full House5,000
4925/01 06:11MAKHOFull House5,000
5025/01 06:11RRHUEM8PXGFull House5,000

Domino Multi Jackpot System

Ikutilah global jackpot yang tersedia di system kami, dengan system jackpot terbaru dan pertama di indonesia, anda dapat membeli jackpot dengan harga 100 rupiah saja dan menangkan hadiahnya hingga puluhan juta rupiah.

Jackpot bukanlah suatu keharusan untuk dibeli, namun kami memberikan suatu fitur tambahan untuk member tercinta dari www.kenzopoker.com.

Terdapat tiga pilihan harga jackpot yang bisa anda beli yaitu :100,500 dan 1000 rupiah.

Hadiah dari Multi jackpot system www.kenzopoker.com

  1. Murni Kecil x 50 harga jackpot yang anda beli.
      (contoh:anda membeli 1000 maka:1000 X 50 = 50.000)
  2. Murni Besar x 50 harga jackpot yang anda beli
      (contoh:anda membeli 1000 maka:1000 X 50 = 50.000)
  3. BALAK x 100 harga jackpot yang anda beli
      (contoh:anda membeli 1000 maka:1000 X 100 = 100.000)
  4. ENAM DEWA x 6666 harga jackpot yang anda beli
      (contoh:anda membeli 1000 maka:1000 X 6666 = 6.666.000)

Demikian adalah penjelasan dari Multi Jackpot www.kenzopoker.com terima kasih dan selamat bermain salam hoki dari kami

Domino Jackpot Winner

TOP ENAM DEWA
No.TanggalNamaPriceWin
125/01 03:25KENTIAUmurni enam6,666,000
225/01 03:00WD88QQmurni enam6,666,000
325/01 02:35BRADOK76murni enam6,666,000
425/01 01:23ACHABILAmurni enam666,600
525/01 00:41MOYEGmurni enam666,600
TOP BALAK
No.TanggalNamaPriceWin
125/01 06:04AGUS9194balak100,000
225/01 06:00XAPRY7R55Obalak50,000
325/01 05:59X_M3N999balak50,000
425/01 05:58TOWLEEbalak50,000
525/01 05:46TEMPEKTUObalak50,000
LATEST JACKPOT
No.TanggalNamaPriceWin
125/01 06:13KBA6WTT4RHmurni kecil50,000
225/01 06:11BANKERS28murni kecil50,000
325/01 06:11FLEXO999murni besar5,000
425/01 06:10SAPURATA22murni kecil25,000
525/01 06:10GOODRILmurni kecil25,000
625/01 06:09DAKOCAN99murni kecil50,000
725/01 06:08TEMPEKTUOmurni besar25,000
825/01 06:04AGUS9194balak100,000
925/01 06:04AADHIEmurni besar50,000
1025/01 06:03RAHAT88QQmurni kecil25,000
1125/01 06:03ROMIR398murni besar25,000
1225/01 06:01AJIE13murni kecil25,000
1325/01 06:00XAPRY7R55Obalak50,000
1425/01 06:00EE8DEFD2murni kecil5,000
1525/01 05:59X_M3N999balak50,000
1625/01 05:58TOWLEEbalak50,000
1725/01 05:56SABRINA01murni besar25,000
1825/01 05:55SOHAHAUmurni kecil50,000
1925/01 05:54LUJENGG81murni besar5,000
2025/01 05:53BITZERmurni kecil50,000
2125/01 05:53AWK991murni kecil50,000
2225/01 05:53DARWINOKEmurni kecil25,000
2325/01 05:53MERCON10murni besar25,000
2425/01 05:52KAS28murni besar5,000
2525/01 05:47DENGROmurni kecil25,000
2625/01 05:46REND88murni besar50,000
2725/01 05:46BENTCOmurni kecil50,000
2825/01 05:46TEMPEKTUObalak50,000
2925/01 05:44MANGASEP85balak100,000
3025/01 05:43TOWLEEmurni besar50,000
3125/01 05:43DA6F17EBbalak10,000
3225/01 05:42TONO_PSmurni kecil5,000
3325/01 05:42POKEL1balak50,000
3425/01 05:42JMSB0ND007murni kecil5,000
3525/01 05:42DEW4QIUmurni besar50,000
3625/01 05:40ENCUSPIAbalak100,000
3725/01 05:39FRITANIA69murni besar5,000
3825/01 05:38HELMI123murni kecil50,000
3925/01 05:37FRITANIA69murni kecil5,000
4025/01 05:36BENTCOmurni besar50,000
4125/01 05:35B3RTU4Hmurni besar5,000
4225/01 05:35RAYZEELmurni kecil25,000
4325/01 05:35MANGASEP85murni kecil50,000
4425/01 05:34NGOZ456murni kecil5,000
4525/01 05:32GEENKmurni kecil5,000
4625/01 05:32NGOZ456murni kecil5,000
4725/01 05:30BARNAZmurni kecil50,000
4825/01 05:30GEENKmurni kecil5,000
4925/01 05:28YUSH55murni besar50,000
5025/01 05:28TEMPE01murni besar25,000

Ceme Multi Jackpot System

Jackpot dilihat dari gabungan kartu pemain dengan kartu bandar. Bandar harus membeli jackpot sebanyak jumlah player yang sedang duduk. Sebagai contoh bila terdapat 3 pemain duduk bermain, dan bandar memutuskan untuk membeli jackpot Rp 1.000, maka pada periode tersebut bandar akan membeli jackpot sebanyak 3xRp1.000 = Rp3.000.

Jackpot bukanlah suatu keharusan untuk dibeli, namun kami memberikan suatu fitur tambahan untuk member tercinta dari www.kenzopoker.com.

Terdapat tiga pilihan harga jackpot yang bisa anda beli yaitu :100,500 dan 1000 rupiah.

Hadiah dari Multi jackpot system www.kenzopoker.com

  1. Murni Kecil x 50 harga jackpot yang anda beli.
      (contoh:anda membeli 1000 maka:1000 X 50 = 50.000)
  2. Murni Besar x 50 harga jackpot yang anda beli
      (contoh:anda membeli 1000 maka:1000 X 50 = 50.000)
  3. BALAK x 200 harga jackpot yang anda beli
      (contoh:anda membeli 1000 maka:1000 X 200 = 200.000)
  4. ENAM DEWA x 6666 harga jackpot yang anda beli
      (contoh:anda membeli 1000 maka:1000 X 6666 = 6.666.000)

Demikian adalah penjelasan dari Multi Jackpot www.kenzopoker.com terima kasih dan selamat bermain salam hoki dari kami

Ceme Jackpot Winner

TOP ENAM DEWA
No.TanggalNamaPriceWin
125/01 03:19IXPLLY5C8Hmurni enam6,666,000
225/01 02:54D0NYD3NImurni enam6,666,000
325/01 02:05BGNXmurni enam666,600
425/01 01:05GRAV8899murni enam3,333,000
524/01 23:55TV98murni enam6,666,000
TOP BALAK
No.TanggalNamaPriceWin
125/01 06:13SRNARTIS80balak200,000
225/01 06:10D43020C5balak20,000
325/01 06:09MADA111balak200,000
425/01 06:09GU319balak100,000
525/01 06:09BOBOROT474balak200,000
LATEST JACKPOT
No.TanggalNamaPriceWin
125/01 06:13JHO81murni kecil25,000
225/01 06:13MTRINJANImurni kecil5,000
325/01 06:13SRNARTIS80balak200,000
425/01 06:13LOVEMUSIC7murni kecil50,000
525/01 06:12MEMETY84murni kecil50,000
625/01 06:10L4L10murni kecil50,000
725/01 06:10D43020C5balak20,000
825/01 06:09ABCQmurni besar25,000
925/01 06:09BOLBASAHmurni besar50,000
1025/01 06:09MADA111balak200,000
1125/01 06:09GU319balak100,000
1225/01 06:09BOBOROT474balak200,000
1325/01 06:08OJAT45balak100,000
1425/01 06:08PRAGIGImurni besar50,000
1525/01 06:08SIBAWELKUmurni besar5,000
1625/01 06:08THOTHOLmurni kecil50,000
1725/01 06:08JU4RA93murni kecil5,000
1825/01 06:07WNDEQbalak100,000
1925/01 06:07RODB2UXWDDbalak200,000
2025/01 06:07GUNDAAALAmurni kecil5,000
2125/01 06:06ABUNAWAS87murni kecil5,000
2225/01 06:06IWAN32murni kecil50,000
2325/01 06:06DANI461murni kecil50,000
2425/01 06:05GUNDAAALAmurni besar25,000
2525/01 06:05ANGGAL12murni kecil50,000
2625/01 06:05AZHARJODImurni besar25,000
2725/01 06:05NIA1565murni kecil5,000
2825/01 06:0599TERUSmurni kecil50,000
2925/01 06:05MODALEOmurni besar50,000
3025/01 06:05DR_SUTOMOmurni kecil25,000
3125/01 06:05BG741NRmurni kecil25,000
3225/01 06:05LOKOLOP99murni kecil50,000
3325/01 06:05ALAT126murni kecil5,000
3425/01 06:04SEXX888balak20,000
3525/01 06:03HOKI99TUmurni kecil50,000
3625/01 06:03DUDUL39murni besar50,000
3725/01 06:03BOLBASAHmurni besar50,000
3825/01 06:03HERRAHJEHmurni besar25,000
3925/01 06:03DOANKF84murni besar50,000
4025/01 06:02MEMETY84murni besar50,000
4125/01 06:02JHO81balak100,000
4225/01 06:02E9D5700Cbalak100,000
4325/01 06:02BOBOROT474murni kecil50,000
4425/01 06:02ZIDAN6263murni kecil50,000
4525/01 06:02MIKI13murni kecil5,000
4625/01 06:01KONGGO9murni kecil25,000
4725/01 06:00RPP25murni kecil25,000
4825/01 06:00BOBOROT474balak200,000
4925/01 06:00MIKI13murni besar5,000
5025/01 05:59MOGE2murni besar50,000